Location: Bon Acre
(42.6442°N, 73.5758°W)
Time: 16:17:21
(UTC+00:00)

Cosmos 2322 Rocket - Pass Details

Date: 14 December 2025
Orbit: 831 x 850 km, 71.0° (Epoch: 16 January)

Event Time Altitude Azimuth Distance (km) Brightness Sun altitude
Rises 23:24:51 0° 177° (S) 3,388 5.5 -21.8°
Reaches altitude 10° 23:27:28 10° 168° (SSE) 2,460 4.6 -22.3°
Enters shadow 23:30:50 29° 138° (SE) 1,517 3.2 -22.9°
